{"data":{"norad_id":47787,"intl_designator":"2021-018A","name":"STARLINK-2257","alt_names":[],"object_type":"PAYLOAD","status":"ACTIVE","operator":null,"country":"US","launch_date":"2021-03-11","launch_site_code":"AFETR","launch_vehicle":null,"mission":null,"orbit_class":"UNKNOWN","rcs_meters":null,"size_class":null,"mass_kg":null,"dimensions":null,"purposes":["comms"],"wikipedia_slug":null,"has_3d_model":false,"image_url":null,"decayed_at":null,"tle_current":{"epoch":"2026-09-20T04:07:45.571008Z","epoch_age_seconds":54101,"freshness":"FRESH","line1":"1 47787U 21018A   26263.17205522 -.00002822  00000+0 -79234-4 0  9992","line2":"2 47787  53.1603  60.6085 0001153  88.1436 271.9697 15.31692128306488","mean_motion":15.31692128,"eccentricity":0.0001153,"inclination_deg":53.1603,"raan_deg":60.6085,"arg_perigee_deg":88.1436,"mean_anomaly_deg":271.9697,"bstar":-7.9234e-5,"rev_number":30648,"period_min":94.013671133785,"perigee_km":469.97378312533,"apogee_km":471.55313957172,"semimajor_km":6848.9004613485,"source":"CELESTRAK","updated_at":"2026-09-20T09:00:38.604263Z"}}}